Grand Rapids, MN

1:41 AM CDT on October 23, 2019 (GMT -0500)
Grand Rapids-Itasca County-Newstrom Field

Weather History for KGPZ - September, 2019

Change the Weather History Date:

Sunday, September 22, 2019

  Actual Average Record
Temperature  
Mean Temperature 58 °F -  
Max Temperature 62 °F 61 °F 90 °F (1936)
Min Temperature 53 °F 39 °F 23 °F (1947)
Degree Days  
Heating Degree Days 8    
Growing Degree Days 8 (Base 50)    
Moisture  
Dew Point 51 °F    
Average Humidity 81    
Maximum Humidity 88    
Minimum Humidity 67    
Precipitation  
Precipitation 0.00 in - - ()
Sea Level Pressure  
Sea Level Pressure 29.85 in    
Wind  
Wind Speed 6 mph ()    
Max Wind Speed 10 mph    
Max Gust Speed 20 mph    
Visibility 10.0 miles    
Events      
Averages and records for this station are not official NWS values.
T = Trace of Precipitation, MM = Missing Value Source: Averaged Metar Reports

Daily Weather History Graph

Daily Weather History Graph

Search for Another Location

Airport or City:

Astronomy

Sep. 22, 2019 Rise Set
Actual Time 7:00 AM CDT 7:12 PM CDT
Civil Twilight 6:30 AM CDT 7:42 PM CDT
Nautical Twilight 5:54 AM CDT 8:18 PM CDT
Astronomical Twilight 5:16 AM CDT 8:55 PM CDT
Moon No Moon Rise 3:33 PM CDT (9/22)
Length of Visible Light 13h 12m
Length of Day
12h 11m
Last Quarter, 44% of the Moon is Illuminated
Sep 22
Last Quarter
Sep 28
New
Oct 5
First Quarter
Oct 13
Full
Oct 21
Last Quarter

Hourly Weather History & Observations

Time (CDT) Temp. Dew Point Humidity Pressure Visibility Wind Dir Wind Speed Gust Speed Precip Events Conditions
12:56 AM 62.1 °F 57.0 °F 84% 29.78 in 10.0 mi WSW 4.6 mph - N/A   Clear
1:56 AM 60.1 °F 55.0 °F 83% 29.79 in 10.0 mi West 9.2 mph - N/A   Clear
2:56 AM 57.9 °F 53.1 °F 84% 29.78 in 10.0 mi West 10.4 mph - N/A   Clear
3:56 AM 57.0 °F 53.1 °F 87% 29.79 in 10.0 mi West 10.4 mph 19.6 mph N/A   Scattered Clouds
4:56 AM 55.0 °F 51.1 °F 86% 29.80 in 10.0 mi WNW 9.2 mph 17.3 mph N/A   Mostly Cloudy
5:41 AM 53.6 °F 50.0 °F 88% 29.81 in 10.0 mi Variable 4.6 mph - N/A   Partly Cloudy
5:56 AM 54.0 °F 50.0 °F 86% 29.81 in 10.0 mi West 4.6 mph - N/A   Clear
6:25 AM 53.6 °F 50.0 °F 88% 29.82 in 10.0 mi West 5.8 mph - N/A   Mostly Cloudy
6:56 AM 54.0 °F 50.0 °F 86% 29.83 in 10.0 mi West 4.6 mph - N/A   Overcast
7:46 AM 53.6 °F 48.2 °F 82% 29.82 in 10.0 mi West 9.2 mph - N/A   Scattered Clouds
7:56 AM 54.0 °F 48.9 °F 83% 29.82 in 10.0 mi WNW 6.9 mph - N/A   Scattered Clouds
8:13 AM 53.6 °F 48.2 °F 82% 29.83 in 10.0 mi West 10.4 mph - N/A   Mostly Cloudy
8:56 AM 54.0 °F 48.9 °F 83% 29.86 in 10.0 mi West 8.1 mph - N/A   Overcast
9:56 AM 55.0 °F 50.0 °F 83% 29.87 in 10.0 mi West 5.8 mph - N/A   Overcast
10:56 AM 55.9 °F 48.9 °F 77% 29.87 in 10.0 mi NW 10.4 mph - N/A   Overcast
11:56 AM 57.0 °F 50.0 °F 77% 29.88 in 10.0 mi WNW 9.2 mph - N/A   Overcast
12:56 PM 57.9 °F 50.0 °F 75% 29.86 in 10.0 mi WNW 8.1 mph - N/A   Overcast
1:56 PM 57.9 °F 50.0 °F 75% 29.87 in 10.0 mi WNW 6.9 mph - N/A   Overcast
2:56 PM 61.0 °F 50.0 °F 67% 29.86 in 10.0 mi WNW 8.1 mph - N/A   Overcast
3:56 PM 60.1 °F 50.0 °F 69% 29.86 in 10.0 mi WNW 5.8 mph - N/A   Overcast
4:56 PM 61.0 °F 51.1 °F 70% 29.85 in 10.0 mi Variable 3.5 mph - N/A   Scattered Clouds
5:56 PM 60.1 °F 52.0 °F 75% 29.87 in 10.0 mi Variable 3.5 mph - N/A   Overcast
6:56 PM 59.0 °F 52.0 °F 78% 29.88 in 10.0 mi West 3.5 mph - N/A   Overcast
7:56 PM 57.9 °F 52.0 °F 81% 29.88 in 10.0 mi Calm Calm - N/A   Overcast
8:56 PM 57.0 °F 52.0 °F 83% 29.89 in 10.0 mi SW 4.6 mph - N/A   Overcast
9:56 PM 57.0 °F 52.0 °F 83% 29.90 in 10.0 mi SW 3.5 mph - N/A   Overcast
10:56 PM 57.0 °F 51.1 °F 81% 29.90 in 10.0 mi West 4.6 mph - N/A   Overcast
11:56 PM 57.9 °F 52.0 °F 81% 29.89 in 10.0 mi West 4.6 mph - N/A   Overcast